Location: Amsterdam
(30.7274°N, 84.4357°W)
Time: 13:26:11
(UTC+00:00)

Tiros 1 despin weight - Pass Details

Date: 18 February 2026
Orbit: 556 x 593 km, 48.2° (Epoch: 13 March)

Event Time Altitude Azimuth Distance (km) Brightness Sun altitude
Rises 01:13:49 0° 324° (NW) 2,731 ? -23.5°
Reaches altitude 10° 01:17:14 10° 354° (N) 1,838 ? -24.2°
Enters shadow 01:17:37 11° 359° (N) 1,777 ? -24.3°
